Location: ??????
(55.2000°N, 38.3000°E)
Time: 09:00:31
(UTC+00:00)

Cosmos 1939 Rocket - Pass Details

Date: 15 November 2025
Orbit: 491 x 528 km, 97.5° (Epoch: 14 December)

Event Time Altitude Azimuth Distance (km) Brightness Sun altitude
Rises 03:21:14 0° 6° (N) 2,688 6.3 -13.7°
Reaches altitude 10° 03:23:37 10° 354° (N) 1,790 5.2 -13.4°
Maximum altitude 03:26:47 25° 298° (WNW) 1,107 3.8 -13.0°
Enters shadow 03:28:34 18° 259° (W) 1,356 4.3 -12.7°
